TimeEST,TemperatureF,Dew PointF,Humidity,Sea Level PressureIn,VisibilityMPH,Wind Direction,Wind SpeedMPH,Gust SpeedMPH,PrecipitationIn,Events,Conditions,WindDirDegrees,DateUTC
12:15 AM,62.6,60.8,94,30.28,10.0,ENE,6.9,-,N/A,,Scattered Clouds,70,2013-11-22 05:15:00
12:35 AM,62.6,60.8,94,30.28,10.0,ENE,8.1,-,N/A,,Clear,70,2013-11-22 05:35:00
12:55 AM,62.6,60.8,94,30.27,10.0,Calm,Calm,-,N/A,,Clear,0,2013-11-22 05:55:00
1:15 AM,62.6,60.8,94,30.27,10.0,East,8.1,-,N/A,,Scattered Clouds,80,2013-11-22 06:15:00
1:35 AM,62.6,60.8,94,30.27,10.0,East,4.6,-,N/A,,Mostly Cloudy,80,2013-11-22 06:35:00
1:55 AM,62.6,60.8,94,30.27,10.0,East,8.1,-,N/A,,Overcast,80,2013-11-22 06:55:00
2:15 AM,62.6,60.8,94,30.26,10.0,East,3.5,-,N/A,,Overcast,90,2013-11-22 07:15:00
2:35 AM,62.6,60.8,94,30.26,10.0,East,5.8,-,N/A,,Overcast,80,2013-11-22 07:35:00
2:55 AM,62.6,60.8,94,30.26,10.0,ENE,9.2,-,N/A,,Overcast,60,2013-11-22 07:55:00
3:15 AM,62.6,60.8,94,30.26,10.0,ENE,9.2,-,N/A,,Overcast,60,2013-11-22 08:15:00
3:35 AM,62.6,60.8,94,30.25,7.0,ENE,8.1,-,N/A,,Overcast,60,2013-11-22 08:35:00
3:55 AM,62.6,60.8,94,30.25,7.0,ENE,5.8,-,N/A,,Overcast,70,2013-11-22 08:55:00
4:15 AM,62.6,60.8,94,30.25,7.0,ENE,6.9,-,N/A,,Overcast,70,2013-11-22 09:15:00
4:35 AM,62.6,60.8,94,30.25,5.0,Calm,Calm,-,N/A,,Overcast,0,2013-11-22 09:35:00
4:55 AM,62.6,60.8,94,30.24,5.0,ENE,3.5,-,N/A,,Overcast,70,2013-11-22 09:55:00
5:15 AM,62.6,62.6,100,30.24,5.0,East,5.8,-,N/A,,Overcast,80,2013-11-22 10:15:00
5:35 AM,62.6,62.6,100,30.24,5.0,Calm,Calm,-,N/A,,Overcast,0,2013-11-22 10:35:00
5:55 AM,62.6,62.6,100,30.25,5.0,ENE,8.1,-,N/A,,Overcast,70,2013-11-22 10:55:00
6:15 AM,62.6,62.6,100,30.25,5.0,Calm,Calm,-,N/A,,Overcast,0,2013-11-22 11:15:00
6:35 AM,62.6,62.6,100,30.25,4.0,Calm,Calm,-,N/A,,Overcast,0,2013-11-22 11:35:00
6:55 AM,62.6,62.6,100,30.26,3.0,East,8.1,-,N/A,,Overcast,80,2013-11-22 11:55:00
7:15 AM,62.6,62.6,100,30.27,2.5,ENE,6.9,-,N/A,,Overcast,60,2013-11-22 12:15:00
7:35 AM,62.6,62.6,100,30.28,1.2,Calm,Calm,-,N/A,,Overcast,0,2013-11-22 12:35:00
7:55 AM,62.6,62.6,100,30.28,1.0,NE,3.5,-,N/A,,Overcast,50,2013-11-22 12:55:00
8:15 AM,62.6,62.6,100,30.29,0.8,NE,6.9,-,N/A,,Overcast,50,2013-11-22 13:15:00
8:35 AM,62.6,62.6,100,30.29,0.8,NE,9.2,-,N/A,,Overcast,50,2013-11-22 13:35:00
8:55 AM,62.6,62.6,100,30.30,2.0,ENE,10.4,-,N/A,,Overcast,70,2013-11-22 13:55:00
9:15 AM,62.6,62.6,100,30.30,4.0,ENE,10.4,-,N/A,,Overcast,70,2013-11-22 14:15:00
9:35 AM,62.6,62.6,100,30.30,5.0,Calm,Calm,-,N/A,,Overcast,0,2013-11-22 14:35:00
9:55 AM,64.4,62.6,94,30.29,7.0,East,8.1,-,N/A,,Overcast,90,2013-11-22 14:55:00
10:15 AM,64.4,62.6,94,30.29,7.0,East,5.8,-,N/A,,Overcast,100,2013-11-22 15:15:00
10:35 AM,66.2,62.6,88,30.28,7.0,East,6.9,-,N/A,,Overcast,80,2013-11-22 15:35:00
10:55 AM,68.0,62.6,83,30.28,10.0,East,6.9,-,N/A,,Overcast,100,2013-11-22 15:55:00
11:15 AM,68.0,64.4,88,30.28,10.0,East,6.9,-,N/A,,Overcast,80,2013-11-22 16:15:00
11:35 AM,69.8,64.4,83,30.28,10.0,NE,5.8,-,N/A,,Overcast,50,2013-11-22 16:35:00
11:55 AM,69.8,64.4,83,30.27,10.0,Calm,Calm,-,N/A,,Overcast,0,2013-11-22 16:55:00
12:15 PM,69.8,64.4,83,30.26,10.0,Calm,Calm,-,N/A,,Overcast,0,2013-11-22 17:15:00
12:35 PM,71.6,64.4,78,30.25,10.0,ENE,3.5,-,N/A,,Overcast,70,2013-11-22 17:35:00
12:55 PM,73.4,68.0,83,30.24,10.0,NE,3.5,-,N/A,,Overcast,50,2013-11-22 17:55:00
1:15 PM,73.4,68.0,83,30.23,10.0,ENE,4.6,-,N/A,,Overcast,60,2013-11-22 18:15:00
1:35 PM,73.4,66.2,78,30.22,10.0,East,4.6,-,N/A,,Overcast,80,2013-11-22 18:35:00
1:55 PM,73.4,66.2,78,30.21,10.0,Calm,Calm,-,N/A,,Overcast,0,2013-11-22 18:55:00
2:15 PM,73.4,66.2,78,30.20,10.0,ESE,3.5,-,N/A,,Mostly Cloudy,110,2013-11-22 19:15:00
2:35 PM,75.2,68.0,78,30.20,10.0,SE,4.6,-,N/A,,Mostly Cloudy,130,2013-11-22 19:35:00
2:55 PM,78.8,68.0,69,30.19,10.0,SE,3.5,-,N/A,,Scattered Clouds,130,2013-11-22 19:55:00
3:15 PM,78.8,69.8,74,30.19,10.0,SSE,3.5,-,N/A,,Clear,150,2013-11-22 20:15:00
3:35 PM,77.0,68.0,74,30.20,7.0,Calm,Calm,-,N/A,,Scattered Clouds,0,2013-11-22 20:35:00
3:55 PM,77.0,68.0,74,30.20,10.0,Calm,Calm,-,N/A,,Scattered Clouds,0,2013-11-22 20:55:00
4:15 PM,77.0,68.0,74,30.20,10.0,Calm,Calm,-,N/A,,Mostly Cloudy,0,2013-11-22 21:15:00
4:35 PM,77.0,68.0,74,30.20,10.0,NNW,4.6,-,N/A,,Mostly Cloudy,340,2013-11-22 21:35:00
4:55 PM,75.2,68.0,78,30.20,10.0,NNW,3.5,-,N/A,,Mostly Cloudy,330,2013-11-22 21:55:00
5:15 PM,73.4,68.0,83,30.20,10.0,Calm,Calm,-,N/A,,Mostly Cloudy,0,2013-11-22 22:15:00
5:35 PM,73.4,68.0,83,30.19,10.0,Calm,Calm,-,N/A,,Mostly Cloudy,0,2013-11-22 22:35:00
5:55 PM,73.4,68.0,83,30.19,10.0,Calm,Calm,-,N/A,,Scattered Clouds,0,2013-11-22 22:55:00
6:15 PM,71.6,68.0,88,30.19,10.0,Calm,Calm,-,N/A,,Clear,0,2013-11-22 23:15:00
6:35 PM,68.0,66.2,94,30.19,10.0,Calm,Calm,-,N/A,,Clear,0,2013-11-22 23:35:00
6:55 PM,68.0,64.4,88,30.18,7.0,Calm,Calm,-,N/A,,Clear,0,2013-11-22 23:55:00
7:15 PM,66.2,64.4,94,30.18,7.0,Calm,Calm,-,N/A,,Clear,0,2013-11-23 00:15:00
7:35 PM,66.2,64.4,94,30.18,5.0,Calm,Calm,-,N/A,,Clear,0,2013-11-23 00:35:00
7:55 PM,66.2,64.4,94,30.17,7.0,Calm,Calm,-,N/A,,Clear,0,2013-11-23 00:55:00
8:15 PM,64.4,64.4,100,30.17,3.0,Calm,Calm,-,N/A,,Mist,0,2013-11-23 01:15:00
8:35 PM,64.4,62.6,94,30.16,5.0,Calm,Calm,-,N/A,,Clear,0,2013-11-23 01:35:00
8:55 PM,64.4,64.4,100,30.17,1.5,Calm,Calm,-,N/A,,Mist,0,2013-11-23 01:55:00
9:15 PM,64.4,64.4,100,30.17,2.5,Calm,Calm,-,N/A,,Mist,0,2013-11-23 02:15:00
9:35 PM,62.6,62.6,100,30.17,1.2,Calm,Calm,-,N/A,,Mist,0,2013-11-23 02:35:00
9:55 PM,62.6,62.6,100,30.18,2.0,Calm,Calm,-,N/A,,Mist,0,2013-11-23 02:55:00
10:15 PM,64.4,62.6,94,30.18,5.0,Calm,Calm,-,N/A,,Clear,0,2013-11-23 03:15:00
10:35 PM,64.4,64.4,100,30.19,5.0,North,3.5,-,N/A,,Clear,350,2013-11-23 03:35:00
10:55 PM,66.2,64.4,94,30.19,7.0,Calm,Calm,-,N/A,,Mostly Cloudy,0,2013-11-23 03:55:00
11:15 PM,64.4,64.4,100,30.18,5.0,Calm,Calm,-,N/A,,Mostly Cloudy,0,2013-11-23 04:15:00
11:35 PM,66.2,64.4,94,30.18,7.0,Calm,Calm,-,N/A,,Mostly Cloudy,0,2013-11-23 04:35:00
11:55 PM,64.4,64.4,100,30.18,4.0,Calm,Calm,-,N/A,,Overcast,0,2013-11-23 04:55:00